Meerawa, Australia

5:33 PM AEST on January 21, 2018 (GMT +1000)
Meerawa

Weather History for 94287 - February, 2013

Change the Weather History Date:

Thursday, February 14, 2013

  Actual Average Record
Temperature  
Mean Temperature 82 °F -  
Max Temperature 89 °F 88 °F - ()
Min Temperature 74 °F 74 °F - ()
Cooling Degree Days 16    
Growing Degree Days 32 (Base 50)    
Moisture  
Dew Point 73 °F    
Average Humidity 81    
Maximum Humidity 94    
Minimum Humidity 51    
Precipitation  
Precipitation 0.16 in 0.57 in - ()
Sea Level Pressure  
Sea Level Pressure 29.78 in    
Wind  
Wind Speed 9 mph ()    
Max Wind Speed 17 mph    
Max Gust Speed -    
Visibility 6.5 miles    
Events Rain    
T = Trace of Precipitation, MM = Missing Value Source: Averaged Metar Reports

Daily Weather History Graph

Daily Weather History Graph

Search for Another Location

Airport or City:

Trip Planner

Search our weather history database for the weather conditions in past years. The results will help you decide how hot, cold, wet, or windy it might be!

Date:

Astronomy

Feb. 14, 2013 Rise Set
Actual Time 6:11 AM AEST 6:50 PM AEST
Civil Twilight 5:49 AM AEST 7:13 PM AEST
Nautical Twilight 5:22 AM AEST 7:39 PM AEST
Astronomical Twilight 4:56 AM AEST 8:05 PM AEST
Moon 9:27 AM AEST (2/14) 9:28 PM AEST (2/14)
Length of Visible Light 13h 23m
Length of Day
12h 39m
Waxing Crescent, 16% of the Moon is Illuminated
Feb 14
Waxing Crescent
Feb 18
First Quarter
Feb 26
Full
Mar 5
Last Quarter
Mar 12
New

Hourly Weather History & Observations

Time (AEST) Temp. Heat Index Dew Point Humidity Pressure Visibility Wind Dir Wind Speed Gust Speed Precip Events Conditions
12:00 AM 77 °F - 74 °F 89% 29.82 in - South 11.5 mph - -  
12:00 AM 77.0 °F - 75.2 °F 94% 29.80 in 6.2 mi South 11.5 mph - N/A Rain Light Rain Showers
12:30 AM 77.0 °F - 73.4 °F 89% 29.83 in 6.2 mi South 12.7 mph - N/A Rain Light Rain Showers
1:00 AM 77 °F - 73 °F 83% 29.82 in - South 12.7 mph - -  
1:00 AM 77.0 °F - 73.4 °F 89% 29.80 in 6.2 mi South 12.7 mph - N/A   Scattered Clouds
1:30 AM 77.0 °F - 73.4 °F 89% 29.80 in 2.5 mi South 11.5 mph - N/A Rain Rain Showers
2:00 AM 77.0 °F - 73.4 °F 89% 29.80 in 3.1 mi South 12.7 mph - N/A Rain Rain Showers
2:25 AM 75.2 °F - 73.4 °F 94% 29.80 in 1.6 mi South 15.0 mph - N/A Rain Heavy Rain Showers
2:30 AM 75.2 °F - 73.4 °F 94% 29.80 in 1.9 mi South 15.0 mph - N/A Rain Rain Showers
3:00 AM 75 °F - 73 °F 90% 29.80 in - South 10.4 mph - -   Overcast
3:00 AM 75.2 °F - 73.4 °F 94% 29.80 in 2.5 mi South 10.4 mph - N/A Rain Rain Showers
3:22 AM 75.2 °F - 71.6 °F 89% 29.77 in 6.2 mi SSW 8.1 mph - N/A   Mostly Cloudy
3:30 AM 75.2 °F - 71.6 °F 89% 29.77 in 6.2 mi SSW 5.8 mph - N/A   Mostly Cloudy
4:00 AM 76 °F - 73 °F 87% 29.79 in - East 6.9 mph - -  
4:00 AM 75.2 °F - 73.4 °F 94% 29.77 in 6.2 mi East 6.9 mph - N/A   Mostly Cloudy
4:30 AM 75.2 °F - 73.4 °F 94% 29.77 in 6.2 mi SSE 4.6 mph - N/A   Mostly Cloudy
5:00 AM 75.2 °F - 73.4 °F 94% 29.77 in 6.2 mi South 2.3 mph - N/A   Scattered Clouds
5:30 AM 75.2 °F - 73.4 °F 94% 29.77 in 6.2 mi NW 2.3 mph - N/A   Scattered Clouds
6:00 AM 75 °F - 73 °F 92% 29.78 in 12 mi ENE 4.6 mph - -   Partly Cloudy
6:00 AM 75.2 °F - 73.4 °F 94% 29.77 in 6.2 mi ENE 4.6 mph - N/A   Scattered Clouds
6:14 AM 75.2 °F - 73.4 °F 94% 29.80 in 1.9 mi North 4.6 mph - N/A Rain Light Rain Showers
6:30 AM 75.2 °F - 73.4 °F 94% 29.80 in 6.2 mi South 6.9 mph - N/A Rain Light Rain Showers
6:46 AM 75.2 °F - 73.4 °F 94% 29.80 in 6.2 mi SSE 8.1 mph - N/A   Scattered Clouds
7:00 AM 76 °F - 74 °F 91% 29.81 in - SE 9.2 mph - -  
7:00 AM 77.0 °F - 73.4 °F 89% 29.80 in 6.2 mi SE 9.2 mph - N/A   Scattered Clouds
7:30 AM 78.8 °F - 73.4 °F 83% 29.80 in 6.2 mi South 5.8 mph - N/A   Scattered Clouds
8:00 AM 80.6 °F 85.4 °F 73.4 °F 79% 29.83 in 6.2 mi South 9.2 mph - N/A   Partly Cloudy
8:30 AM 80.6 °F 85.4 °F 73.4 °F 79% 29.80 in 6.2 mi South 9.2 mph - N/A   Partly Cloudy
9:00 AM 81 °F - 74 °F 74% 29.83 in 12 mi South 10.4 mph - -   Scattered Clouds
9:00 AM 80.6 °F 85.4 °F 73.4 °F 79% 29.83 in 6.2 mi South 10.4 mph - N/A   Partly Cloudy
9:30 AM 80.6 °F 86.2 °F 75.2 °F 84% 29.83 in 6.2 mi South 10.4 mph - N/A   Scattered Clouds
10:00 AM 82 °F - 75 °F 74% 29.83 in - South 8.1 mph - -  
10:00 AM 82.4 °F 89.5 °F 75.2 °F 79% 29.83 in 6.2 mi South 8.1 mph - N/A   Scattered Clouds
10:30 AM 84.2 °F 92.3 °F 75.2 °F 74% 29.80 in 6.2 mi South 10.4 mph - N/A   Scattered Clouds
11:00 AM 84.2 °F 90.9 °F 73.4 °F 70% 29.80 in 6.2 mi SE 12.7 mph - N/A   Scattered Clouds
11:30 AM 87.8 °F 95.6 °F 73.4 °F 62% 29.80 in 6.2 mi East 10.4 mph - N/A   Mostly Cloudy
12:00 PM 87 °F - 74 °F 57% 29.80 in 19 mi SE 13.8 mph - -   Partly Cloudy
12:00 PM 87.8 °F 95.6 °F 73.4 °F 62% 29.80 in 6.2 mi SE 13.8 mph - N/A   Scattered Clouds
12:30 PM 87.8 °F 93.8 °F 71.6 °F 58% 29.77 in 6.2 mi SE 11.5 mph - N/A   Partly Cloudy
1:00 PM 87 °F - 71 °F 51% 29.78 in - SE 11.5 mph - -  
1:00 PM 87.8 °F 93.8 °F 71.6 °F 58% 29.77 in 6.2 mi SE 11.5 mph - N/A   Partly Cloudy
1:30 PM 89.6 °F 96.2 °F 71.6 °F 55% 29.74 in 6.2 mi ESE 12.7 mph - N/A   Partly Cloudy
2:00 PM 86.0 °F 93.4 °F 73.4 °F 66% 29.74 in 6.2 mi SSE 17.3 mph - N/A   Scattered Clouds
2:30 PM 84.2 °F 96.1 °F 78.8 °F 84% 29.74 in 6.2 mi SE 12.7 mph - N/A   Scattered Clouds
3:00 PM 86 °F - 75 °F 62% 29.75 in 19 mi SE 10.4 mph - -   Partly Cloudy
3:00 PM 86.0 °F 95.1 °F 75.2 °F 70% 29.74 in 6.2 mi SE 10.4 mph - N/A   Mostly Cloudy
3:30 PM 86.0 °F 91.8 °F 71.6 °F 62% 29.74 in 6.2 mi SE 11.5 mph - N/A   Mostly Cloudy
4:00 PM 86 °F - 70 °F 51% 29.74 in - SE 8.1 mph - -  
4:00 PM 86.0 °F 90.4 °F 69.8 °F 58% 29.71 in 6.2 mi SE 8.1 mph - N/A   Mostly Cloudy
4:30 PM 86.0 °F 91.8 °F 71.6 °F 62% 29.71 in 6.2 mi SSE 10.4 mph - N/A   Scattered Clouds
5:00 PM 86.0 °F 91.8 °F 71.6 °F 62% 29.71 in 6.2 mi SE 12.7 mph - N/A   Scattered Clouds
5:30 PM 84.2 °F 89.6 °F 71.6 °F 66% 29.74 in 6.2 mi SE 11.5 mph - N/A   Scattered Clouds
6:00 PM 83 °F - 73 °F 66% 29.75 in 16 mi SSE 9.2 mph - -   Partly Cloudy
6:00 PM 82.4 °F 88.2 °F 73.4 °F 74% 29.74 in 6.2 mi SSE 9.2 mph - N/A   Scattered Clouds
6:30 PM 82.4 °F 88.2 °F 73.4 °F 74% 29.74 in 3.7 mi SE 10.4 mph - N/A Rain Light Rain Showers
7:00 PM 77 °F - 74 °F 87% 29.77 in - South 5.8 mph - -  
7:00 PM 77.0 °F - 73.4 °F 89% 29.74 in 6.2 mi South 5.8 mph - N/A   Scattered Clouds
7:30 PM 78.8 °F - 75.2 °F 89% 29.77 in 3.7 mi SSE 8.1 mph - N/A Rain Light Rain Showers
8:00 PM 78.8 °F - 75.2 °F 89% 29.77 in 6.2 mi South 4.6 mph - N/A   Scattered Clouds
8:30 PM 78.8 °F - 75.2 °F 89% 29.77 in 6.2 mi South 9.2 mph - N/A   Scattered Clouds
9:00 PM 78 °F - 74 °F 85% 29.79 in 16 mi South 4.6 mph - -   Partly Cloudy
9:00 PM 78.8 °F - 75.2 °F 89% 29.77 in 6.2 mi South 4.6 mph - N/A   Partly Cloudy
9:30 PM 78.8 °F - 75.2 °F 89% 29.80 in 3.7 mi SSE 8.1 mph - N/A Rain Light Rain Showers
10:00 PM 76 °F - 75 °F 94% 29.82 in - South 9.2 mph - -  
10:00 PM 77.0 °F - 75.2 °F 94% 29.80 in 3.7 mi South 9.2 mph - N/A Rain Light Rain Showers
10:06 PM 77.0 °F - 73.4 °F 89% 29.80 in 5.0 mi South 6.9 mph - N/A   Scattered Clouds
10:30 PM 78.8 °F - 71.6 °F 78% 29.80 in 5.6 mi South 5.8 mph - N/A   Scattered Clouds
11:00 PM 77.0 °F - 73.4 °F 89% 29.80 in 4.3 mi SSE 9.2 mph - N/A Rain Light Rain Showers
11:23 PM 77.0 °F - 75.2 °F 94% 29.80 in 3.7 mi South 9.2 mph - N/A Rain Light Rain Showers
11:30 PM 77.0 °F - 73.4 °F 89% 29.80 in 5.0 mi South 10.4 mph - N/A Rain Light Rain Showers
11:49 PM 77.0 °F - 71.6 °F 83% 29.80 in 6.2 mi SSW 5.8 mph - N/A   Scattered Clouds